Temp
-16 -16 -16 -16 -16 -15 -15 -15 -15 -15 -15 -15 -16 -16 -16 -16 -16 -16 -16 -15 -15 -15 -15 -15 -15 -15 -15 -15 -15 -15 -15 -15
-17 -17 -16 -16 -16 -15 -15 -15 -15 -15 -15 -15 -16 -16 -16 -16 -16 -16 -16 -15 -15 -15 -15 -15 -15 -15 -15 -15 -15 -15 -15 -15
-16 -16 -16 -16 -16 -16 -15 -15 -15 -16 -16 -16 -16 -16 -16 -16 -16 -15 -15 -16 -15 -15 -15 -15 -15 -15 -15 -15 -15 -15 -15 -15
-15 -16 -16 -16 -16 -15 -15 -15 -15 -15 -15 -16 -16 -16 -16 -16 -16 -16 -16 -16 -15 -15 -15 -15 -15 -15 -15 -15 -15 -16 -15 -15
-16 -16 -16 -16 -15 -15 -15 -15 -15 -15 -16 -16 -16 -16 -16 -17 -16 -16 -16 -16 -15 -15 -15 -15 -15 -15 -15 -16 -16 -16 -16 -15
-16 -16 -16 -16 -16 -16 -16 -16 -16 -16 -16 -16 -17 -16 -16 -16 -16 -16 -16 -16 -16 -16 -16 -16 -16 -16 -16 -16 -16 -16 -16 -16
-15 -15 -15 -15 -16 -16 -16 -16 -16 -16 -16 -16 -16 -16 -16 -16 -16 -16 -16 -16 -16 -16 -16 -16 -16 -16 -16 -16 -16 -16 -16 -16
-16 -16 -16 -16 -16 -16 -16 -16 -16 -16 -16 -16 -16 -16 -16 -16 -16 -16 -16 -16 -16 -16 -16 -16 -16 -16 -16 -16 -16 -16 -17 -17
-15 -16 -16 -16 -16 -16 -16 -16 -16 -16 -16 -16 -16 -16 -16 -16 -16 -16 -16 -16 -16 -16 -16 -16 -16 -16 -16 -16 -16 -16 -17 -17
-16 -16 -16 -16 -16 -16 -16 -16 -16 -16 -16 -16 -16 -16 -16 -16 -16 -16 -16 -16 -16 -16 -16 -16 -16 -16 -15 -16 -16 -17 -17 -17
-16 -16 -16 -16 -16 -16 -16 -16 -16 -16 -16 -16 -16 -16 -16 -16 -16 -16 -16 -16 -16 -16 -16 -16 -16 -16 -16 -16 -17 -17 -17 -17
-16 -16 -16 -16 -16 -16 -16 -16 -16 -16 -16 -16 -16 -16 -16 -16 -16 -16 -17 -16 -17 -16 -16 -16 -16 -16 -17 -17 -17 -17 -17 -18
-16 -16 -16 -16 -16 -16 -16 -16 -16 -16 -16 -17 -17 -17 -16 -17 -17 -16 -16 -16 -16 -16 -16 -17 -16 -17 -17 -17 -18 -18 -18 -18
-16 -16 -17 -16 -16 -16 -17 -17 -17 -17 -17 -17 -17 -17 -17 -17 -17 -17 -16 -16 -16 -16 -16 -17 -17 -17 -17 -17 -18 -18 -19 -19
-16 -16 -16 -17 -17 -17 -17 -17 -17 -17 -17 -17 -17 -17 -17 -17 -17 -17 -17 -16 -16 -16 -16 -16 -17 -17 -18 -18 -18 -19 -19 -20
-16 -16 -16 -16 -16 -16 -17 -17 -17 -17 -17 -17 -17 -17 -17 -17 -17 -17 -16 -16 -16 -16 -17 -17 -17 -17 -18 -18 -19 -19 -20 -20
-16 -16 -16 -16 -16 -16 -17 -17 -17 -18 -18 -18 -17 -17 -17 -17 -16 -16 -16 -16 -16 -17 -17 -17 -17 -18 -18 -19 -19 -20 -21 -21
-16 -16 -16 -16 -17 -17 -17 -17 -17 -18 -17 -17 -17 -17 -17 -16 -16 -16 -17 -17 -17 -17 -17 -18 -18 -18 -19 -19 -20 -21 -21 -22
-16 -16 -17 -17 -17 -17 -17 -17 -17 -17 -17 -17 -17 -17 -17 -16 -17 -17 -17 -17 -17 -17 -18 -18 -19 -19 -20 -20 -21 -21 -22 -22
Height
5742 5743 5744 5744 5745 5746 5747 5748 5746 5747 5748 5750 5750 5753 5759 5762 5765 5766 5768 5769 5771 5773 5775 5776 5777 5778 5778 5778 5777 5777 5775 5773
5744 5745 5746 5747 5748 5749 5749 5749 5751 5751 5753 5753 5756 5759 5762 5763 5764 5767 5767 5768 5769 5771 5772 5772 5773 5775 5774 5774 5773 5771 5769 5767
5747 5748 5748 5748 5749 5750 5751 5752 5753 5753 5754 5755 5757 5759 5760 5762 5762 5764 5765 5766 5767 5768 5769 5769 5770 5770 5769 5769 5766 5764 5762 5760
5749 5749 5749 5750 5751 5752 5752 5752 5753 5754 5755 5756 5758 5758 5759 5760 5761 5764 5764 5763 5764 5765 5766 5766 5765 5763 5763 5762 5759 5756 5753 5752
5749 5749 5751 5751 5752 5752 5753 5753 5754 5755 5756 5756 5757 5758 5758 5759 5759 5758 5758 5759 5760 5759 5761 5759 5758 5757 5755 5752 5749 5747 5746 5743
5748 5749 5750 5750 5752 5753 5753 5754 5754 5754 5755 5755 5755 5755 5755 5755 5755 5755 5755 5756 5755 5755 5754 5753 5752 5749 5747 5744 5742 5740 5738 5734
5746 5747 5748 5750 5750 5751 5751 5752 5752 5753 5753 5753 5753 5752 5752 5753 5753 5753 5752 5752 5751 5750 5748 5747 5745 5743 5740 5738 5736 5732 5728 5724
5745 5745 5746 5747 5748 5748 5749 5749 5750 5750 5750 5750 5750 5749 5749 5750 5748 5748 5748 5747 5746 5744 5741 5739 5737 5734 5733 5731 5727 5722 5718 5713
5742 5743 5743 5744 5745 5745 5745 5745 5745 5746 5746 5747 5746 5745 5744 5746 5745 5744 5744 5741 5740 5738 5735 5732 5729 5724 5724 5721 5716 5713 5708 5703
5740 5740 5740 5740 5740 5741 5742 5742 5742 5743 5743 5742 5740 5741 5740 5741 5741 5739 5737 5734 5732 5730 5727 5723 5720 5718 5712 5715 5708 5704 5699 5692
5736 5736 5736 5736 5736 5736 5737 5737 5737 5738 5738 5738 5736 5735 5735 5735 5733 5732 5729 5727 5724 5721 5718 5716 5713 5711 5709 5705 5701 5694 5687 5681
5731 5732 5732 5732 5732 5732 5733 5733 5733 5733 5734 5734 5733 5731 5730 5728 5726 5723 5721 5720 5717 5714 5711 5708 5705 5702 5698 5694 5688 5682 5676 5669
5726 5727 5727 5727 5727 5726 5727 5727 5727 5727 5728 5727 5726 5724 5723 5721 5719 5717 5715 5712 5708 5705 5702 5699 5695 5691 5685 5680 5675 5669 5663 5655
5722 5721 5722 5722 5722 5722 5722 5722 5722 5722 5721 5721 5720 5718 5716 5714 5712 5709 5706 5702 5699 5696 5692 5689 5684 5678 5673 5668 5662 5655 5649 5641
5716 5717 5716 5716 5716 5715 5716 5716 5716 5714 5715 5713 5712 5710 5708 5706 5703 5700 5696 5693 5689 5685 5682 5677 5672 5666 5660 5654 5647 5640 5634 5626
5710 5709 5710 5710 5709 5708 5709 5708 5708 5707 5706 5704 5703 5702 5699 5697 5694 5691 5688 5684 5680 5676 5670 5665 5659 5653 5647 5640 5633 5626 5618 5611
5703 5702 5702 5702 5701 5701 5701 5701 5700 5699 5697 5696 5695 5693 5691 5688 5685 5682 5677 5674 5669 5664 5658 5652 5645 5639 5632 5626 5619 5612 5605 5597
5695 5694 5694 5694 5693 5693 5691 5691 5691 5690 5689 5688 5686 5683 5681 5678 5675 5671 5667 5662 5657 5652 5646 5639 5632 5626 5619 5612 5605 5599 5591 5583
5687 5686 5686 5686 5685 5684 5683 5682 5681 5680 5679 5678 5676 5674 5671 5668 5665 5661 5656 5651 5645 5639 5633 5626 5618 5612 5605 5597 5591 5584 5577 5568
Wind_Speed
12 7 12 8 7 7 7 9 15 16 15 14 14 11 6 4 5 5 12 16 18 12 12 12 12 13 16 18 21 24 27 31
7 9 9 6 4 2 3 5 4 6 6 7 7 7 7 8 9 11 14 15 15 14 13 13 14 17 20 25 26 28 33 35
5 5 5 3 2 3 4 2 0 1 1 2 4 6 8 10 11 15 15 15 18 15 16 17 19 21 26 29 31 31 34 33
4 3 4 5 6 7 8 7 6 5 6 7 8 10 10 11 12 14 16 17 18 20 21 24 25 28 33 36 38 36 38 37
6 5 7 8 8 9 9 9 9 10 11 11 11 12 12 15 15 14 15 18 22 21 26 24 31 33 35 37 38 38 42 43
8 9 11 10 9 10 10 11 12 12 13 14 16 17 19 17 17 18 18 19 21 22 24 27 33 37 40 39 38 40 45 49
11 11 12 12 13 13 14 14 15 15 16 18 19 21 23 22 22 22 23 21 24 27 30 32 37 37 37 41 41 45 48 53
15 18 18 14 16 18 19 17 16 17 18 17 19 20 22 23 26 29 29 25 28 32 36 38 44 34 34 44 45 47 49 56
17 15 15 15 18 20 20 20 21 19 17 16 26 20 18 21 21 17 24 29 32 35 35 37 39 32 39 43 50 46 52 60
16 17 16 17 20 20 21 19 19 19 19 20 23 19 22 24 26 29 33 34 35 38 40 40 34 33 39 49 47 51 58 63
19 18 16 17 18 18 17 17 18 18 19 22 24 23 25 27 31 34 35 39 40 37 36 38 37 35 38 44 52 59 61 69
22 21 22 20 20 18 16 19 20 21 23 24 25 28 29 33 36 37 39 40 42 41 38 41 38 45 49 51 57 63 66 70
24 23 22 21 19 20 20 21 23 25 26 27 28 32 35 37 38 40 41 42 41 42 42 45 48 48 51 55 58 63 68 69
25 25 26 25 24 24 24 24 27 28 30 31 34 37 39 41 41 43 44 43 44 44 44 47 50 52 54 54 56 61 63 66
22 24 27 29 31 31 31 32 33 35 35 37 40 41 41 41 43 44 45 44 45 45 46 48 51 52 55 57 60 63 64 65
26 25 24 27 32 35 33 36 36 37 38 40 41 42 42 43 43 43 44 43 44 45 47 51 53 55 57 59 62 64 64 66
27 28 30 30 31 32 33 33 32 35 37 37 38 39 40 40 40 41 42 43 45 47 51 54 57 59 61 61 64 63 65 63
31 33 31 31 31 32 33 33 33 33 33 34 36 37 37 38 39 41 43 46 49 51 54 56 59 60 62 63 64 62 59 60
35 36 36 34 34 35 35 35 35 34 35 36 35 36 38 39 41 44 46 49 52 55 58 60 61 62 63 63 60 59 60 64
Wind_Direction
167 182 139 110 75 73 72 87 93 93 94 91 89 94 117 179 212 228 238 231 227 227 226 224 237 254 270 284 291 292 295 298
133 103 109 120 105 66 32 57 58 93 103 112 140 172 202 217 232 244 248 254 238 221 221 239 252 266 275 285 292 295 296 298
199 183 176 202 261 306 328 334 138 137 237 253 238 243 250 255 258 257 252 260 243 236 243 249 261 271 279 284 288 296 305 301
236 244 265 264 274 287 294 300 301 296 290 284 276 268 268 263 264 260 255 264 252 248 255 264 276 279 283 284 289 293 300 304
225 245 252 256 259 270 278 283 290 292 293 295 287 281 276 265 269 272 271 269 275 274 270 273 285 284 289 290 291 292 297 300
248 238 242 247 255 260 269 275 278 282 283 286 287 281 280 278 268 270 273 276 281 292 292 286 283 287 293 292 290 291 297 302
270 275 307 275 267 269 272 274 275 278 281 281 281 279 279 281 271 268 270 276 284 286 289 287 288 285 291 289 287 290 294 297
264 285 297 288 275 275 281 281 283 286 292 285 279 279 284 279 285 272 276 282 288 291 291 291 292 278 286 285 288 289 291 300
281 281 279 280 282 278 287 287 285 291 293 288 280 260 276 296 298 290 296 292 290 288 289 289 295 291 292 295 289 290 295 297
263 262 268 277 280 278 282 287 286 286 289 280 290 293 299 299 303 303 301 297 294 296 295 295 292 300 274 294 289 290 285 291
255 261 263 275 275 275 281 281 274 277 276 280 283 291 292 296 298 300 300 300 302 299 297 299 292 292 289 284 280 281 283 294
251 259 265 265 265 267 264 267 264 263 264 269 279 284 292 292 295 300 301 299 299 299 295 293 284 287 287 284 281 281 284 291
252 253 252 253 256 261 263 264 267 267 270 274 281 285 288 292 294 295 295 296 296 297 295 293 292 291 289 287 286 287 289 295
250 250 248 249 252 257 261 264 266 269 270 276 278 283 287 288 291 293 293 294 294 293 292 288 292 292 293 294 293 293 296 297
257 256 253 252 253 256 259 262 265 268 273 274 278 281 282 285 286 288 291 292 292 294 294 294 296 296 297 298 298 299 299 299
267 264 263 263 259 258 262 265 269 270 270 270 273 276 279 281 284 286 288 290 293 295 296 297 298 300 301 301 300 299 300 301
269 267 268 272 268 268 266 267 264 263 267 271 274 276 277 280 282 285 290 294 296 297 299 300 301 302 300 299 299 301 302 304
268 269 272 272 271 271 270 270 271 273 274 276 276 278 281 284 287 292 295 297 298 299 300 300 299 299 300 300 300 301 302 306
266 267 269 269 270 269 270 271 276 277 278 281 282 284 286 290 294 296 297 297 298 299 300 300 301 301 301 300 298 299 303 309